Location: Rio Negrinho
(26.2394°S, 49.4999°W)
Time: 14:42:16
(UTC+00:00)

Cosmos 2278 Rocket - Pass Details

Date: 07 June 2020
Orbit: 840 x 847 km, 71.0° (Epoch: 07 July)

Event Time Altitude Azimuth Distance (km) Brightness Sun altitude
Rises 09:30:54 0° 344° (NNW) 3,384 5.4 -7.0°
Reaches altitude 10° 09:33:19 10° 344° (NNW) 2,455 4.7 -6.5°
Maximum altitude 09:38:58 87° 72° (ENE) 852 2.3 -5.3°
Drops below altitude 10° 09:44:41 10° 161° (SSE) 2,479 4.6 -4.1°
Sets 09:47:08 0° 161° (SSE) 3,419 5.3 -3.6°
